Location: Newark
(12.4436°N, 0.6167°W)
Time: 22:47:25
(UTC+00:00)

deb Explorer IX - Pass Details

Date: 09 December 2019
Orbit: 548 x 1101 km, 38.8° (Epoch: 17 January)

Event Time Altitude Azimuth Distance (km) Brightness Sun altitude
Rises 16:36:18 0° 288° (WNW) 3,249 ? 12.6°
Reaches altitude 10° 16:40:49 10° 323° (NW) 2,480 ? 11.6°
Maximum altitude 16:42:32 11° 340° (NNW) 2,451 ? 11.3°
Drops below altitude 10° 16:44:18 10° 357° (N) 2,595 ? 10.9°
Sets 16:49:28 0° 29° (NNE) 3,692 ? 9.8°
